Globalstar M089

operational
NORAD ID: 37744 Int'l Des: 2011-033 Owner: GLOBL Country: US Constellation: globalstar
LEOCIRCULAR

About Globalstar M089

Description loading...

Live Position

Loading 3D Globe...

Upcoming Passes

Altitude History

Altitude vs Time

uPlot chart will show altitude changes over time

Two-Line Element Set

1 37744U 11033F 25298.96912707 -.00000094 00000-0 56400-4 0 9993
2 37744 51.9909 142.9698 0000806 71.2244 80.2268 12.62272176661200
Epoch: Oct 25, 2025 • Age: 7 hours

Current Status

Altitude 1413.2 km
Velocity 7.16 km/s
Sub-Earth Point 14.07°N, 26.12°E
Launch Date Jul 13, 2011
Age 14.2 years
Type communications

Technical Details

Classification Payload
Mass 715.00 kg
Dry Mass 500.00 kg
Total Mass 715.00 kg
Length 4.00 m
Diameter 2.00 m
Span 12.00 m
Shape Trap Cyl + 2 Pan
Manufacturer THALR
Bus Type Prisma
Phase Status In Orbit
Owner/State GLOBL/US

Large Constellations

Loading constellations...